Location: Clinton NY
(43.0598°N, 75.3602°W)
Time: 05:22:33
(UTC-04:00)

Amateur Radio Satellites - All Passes

Search period start: 18 April 2014 04:52
Search period end: 19 April 2014 04:52
Location: Clinton NY, 43.0598°N, 75.3602°W

Satellite Date Start Highest point End Downlink Frequencies (MHz)
Time Altitude Azimuth
AO-7 18 Apr 04:58:02 05:05:46 41° 99° (E) 05:13:27 29.400 - 29.500 MHz
ITAMSAT 1 18 Apr 04:58:50 05:01:35 15° 301° (WNW) 05:04:19 435.822 SSB
TMSAT-1 18 Apr 05:18:24 05:23:13 37° 292° (WNW) 05:28:01 436.925 FM
Uosat F 18 Apr 05:37:33 05:42:29 60° 288° (WNW) 05:47:23 435.120 FM
KITSAT 1 18 Apr 05:44:29 05:51:25 30° 322° (NW) 05:58:22 435.175 FM
JAS-1B 18 Apr 06:05:54 06:11:04 37° 294° (WNW) 06:16:18 435.800 - 435.900 CW/SSB
Gurwin Techsat 1B 18 Apr 06:12:00 06:13:04 11° 305° (NW) 06:14:09 435.225 FM
Hamsat 18 Apr 06:13:45 06:16:20 15° 91° (E) 06:18:54 145.90 MHz
STRAND 1 18 Apr 06:26:03 06:31:01 53° 71° (ENE) 06:36:00 ?
MaSat-1 18 Apr 06:29:21 06:30:23 11° 54° (NE) 06:31:27 437.345 MHz
RS-15 18 Apr 06:45:22 06:55:49 45° 110° (ESE) 07:05:56 29.354 - 29.394 USB, Beacon 29.352 USB
AO-7 18 Apr 06:50:47 06:58:39 49° 298° (WNW) 07:06:31 29.400 - 29.500 MHz
JAS-2 18 Apr 07:37:35 07:42:32 36° 98° (E) 07:47:52 435.800 - 435.900 CW/SSB, 435.910 FM
KITSAT 1 18 Apr 07:46:08 07:50:03 14° 351° (N) 07:53:59 435.175 FM
Hamsat 18 Apr 07:48:23 07:52:36 51° 287° (WNW) 07:56:49 145.90 MHz
MaSat-1 18 Apr 08:06:07 08:08:52 37° 246° (WSW) 08:12:05 437.345 MHz
STRAND 1 18 Apr 08:06:55 08:10:32 19° 268° (W) 08:14:10 ?
Sapphire 18 Apr 08:28:58 08:31:51 14° 36° (NE) 08:34:44 437.095 MHz 1200 baud AX-25 AFSK
SO-67 18 Apr 08:38:31 08:41:59 59° 285° (WNW) 08:45:25 435.3500 MHz FM
AO-7 18 Apr 08:46:36 08:49:27 12° 320° (NW) 08:52:18 29.400 - 29.500 MHz
RS-15 18 Apr 08:56:50 09:07:53 59° 313° (NW) 09:18:41 29.354 - 29.394 USB, Beacon 29.352 USB
HO-68 18 Apr 09:07:02 09:12:29 23° 92° (E) 09:17:54 435.675 MHz FM
Oscar 10/S400 18 Apr 09:11:28 04:52:03 11° 80° (E) 11:06:38 145.825 - 145.975 CW/USB, Beacon 145.810 USB
PCSat 18 Apr 09:13:04 09:17:42 28° 47° (NE) 09:22:17 145.825 MHz
JAS-2 18 Apr 09:22:59 09:27:35 31° 293° (WNW) 09:32:30 435.800 - 435.900 CW/SSB, 435.910 FM
AO-40 18 Apr 09:24:10 10:25:52 15° 232° (SW) 12:02:01 Beacon 2401.320
KITSAT 1 18 Apr 09:44:20 09:49:30 18° 22° (NNE) 09:54:39 435.175 FM
Sapphire 18 Apr 10:10:56 10:16:21 67° 57° (ENE) 10:21:44 437.095 MHz 1200 baud AX-25 AFSK
FUNcube-1 18 Apr 10:41:50 10:44:49 18° 93° (E) 10:47:50 145.950 - 145.970 MHz USB
Saudisat 1A 18 Apr 10:44:17 10:47:02 16° 110° (ESE) 10:49:47 436.775 MHz
HO-68 18 Apr 10:53:37 11:00:46 71° 290° (WNW) 11:07:53 435.675 MHz FM
Oscar 11 18 Apr 10:54:59 10:59:22 81° 103° (ESE) 11:03:43 145.825 FM, Beacon 2401.500 USB
PCSat 18 Apr 10:56:08 11:01:23 51° 246° (WSW) 11:06:36 145.825 MHz
RS-15 18 Apr 11:14:26 11:23:13 26° 343° (NNW) 11:31:56 29.354 - 29.394 USB, Beacon 29.352 USB
KITSAT 1 18 Apr 11:39:22 11:47:12 48° 48° (NE) 11:54:56 435.175 FM
Sapphire 18 Apr 11:55:38 11:59:13 18° 255° (WSW) 12:02:47 437.095 MHz 1200 baud AX-25 AFSK
FUNcube-1 18 Apr 12:17:26 12:21:24 40° 289° (WNW) 12:25:26 145.950 - 145.970 MHz USB
Saudisat 1A 18 Apr 12:21:45 12:26:10 60° 307° (NW) 12:30:36 436.775 MHz
Oscar 11 18 Apr 12:33:42 12:34:54 11° 300° (WNW) 12:36:07 145.825 FM, Beacon 2401.500 USB
HO-68 18 Apr 12:43:25 12:47:14 15° 310° (NW) 12:51:03 435.675 MHz FM
AO-27 18 Apr 12:48:56 12:51:53 16° 59° (ENE) 12:54:51 436.795 MHz FM
ITAMSAT 1 18 Apr 12:59:19 13:02:49 19° 61° (ENE) 13:06:19 435.822 SSB
Oscar 19 18 Apr 13:05:33 13:10:12 36° 68° (ENE) 13:14:54 437.125 CW, 437.150 USB
Oscar 16 18 Apr 13:13:20 13:18:13 46° 70° (ENE) 13:23:08 437.025 USB, Beacon 2401.1428
AO-Echo 18 Apr 13:18:26 13:22:21 22° 64° (ENE) 13:26:12 ?
RS-15 18 Apr 13:31:34 13:40:28 27° 19° (NNE) 13:49:22 29.354 - 29.394 USB, Beacon 29.352 USB
KITSAT 1 18 Apr 13:35:01 13:42:32 44° 249° (WSW) 13:50:01 435.175 FM
Uribyol 2 18 Apr 13:46:15 13:51:12 49° 70° (ENE) 13:56:11 436.500 FM
Saudisat 1A 18 Apr 14:05:02 14:06:43 12° 328° (NNW) 14:08:23 436.775 MHz
AO-7 18 Apr 14:10:41 14:14:48 15° 43° (NE) 14:18:55 29.400 - 29.500 MHz
Gurwin Techsat 1B 18 Apr 14:12:09 14:16:32 27° 65° (ENE) 14:20:56 435.225 FM
OPAL 18 Apr 14:24:23 14:24:59 10° 89° (E) 14:25:36 ?
AO-27 18 Apr 14:25:34 14:30:46 77° 257° (WSW) 14:35:59 436.795 MHz FM
ITAMSAT 1 18 Apr 14:36:42 14:41:50 62° 258° (WSW) 14:46:59 435.822 SSB
Oscar 19 18 Apr 14:45:11 14:49:36 29° 265° (W) 14:54:03 437.125 CW, 437.150 USB
Oscar 16 18 Apr 14:53:47 14:57:47 23° 267° (W) 15:01:49 437.025 USB, Beacon 2401.1428
AO-Echo 18 Apr 14:55:39 15:00:46 52° 260° (W) 15:05:48 ?
TMSAT-1 18 Apr 15:00:14 15:05:20 51° 71° (ENE) 15:10:27 436.925 FM
JAS-1B 18 Apr 15:00:32 15:07:36 36° 66° (ENE) 15:13:40 435.800 - 435.900 CW/SSB
ISS 18 Apr 15:02:43 15:04:14 13° 131° (SE) 15:05:45 145.800 FM
Uosat F 18 Apr 15:14:04 15:18:13 27° 65° (ENE) 15:22:22 435.120 FM
Uribyol 2 18 Apr 15:27:05 15:30:57 21° 267° (W) 15:34:50 436.500 FM
RS-15 18 Apr 15:44:39 15:55:32 64° 49° (NE) 16:06:36 29.354 - 29.394 USB, Beacon 29.352 USB
Gurwin Techsat 1B 18 Apr 15:51:17 15:56:17 42° 262° (W) 16:01:20 435.225 FM
AO-7 18 Apr 15:57:51 16:05:54 59° 65° (ENE) 16:13:59 29.400 - 29.500 MHz
OPAL 18 Apr 15:59:21 16:04:36 84° 106° (ESE) 16:09:50 ?
SO-50 18 Apr 16:24:28 16:28:57 85° 123° (ESE) 16:33:29 436.795 FM
ISS 18 Apr 16:37:11 16:40:32 85° 329° (NNW) 16:43:54 145.800 FM
TMSAT-1 18 Apr 16:41:33 16:45:32 21° 268° (W) 16:49:32 436.925 FM
JAS-1B 18 Apr 16:50:13 16:58:06 48° 260° (W) 17:04:46 435.800 - 435.900 CW/SSB
Uosat F 18 Apr 16:52:09 16:56:50 39° 262° (W) 17:01:32 435.120 FM
Hamsat 18 Apr 17:09:21 17:11:17 13° 62° (ENE) 17:13:14 145.90 MHz
UOSAT-12 18 Apr 17:15:17 17:18:12 17° 110° (ESE) 17:21:09 437.025 FM, 437.400 FM
OPAL 18 Apr 17:39:56 17:42:48 15° 304° (WNW) 17:45:40 ?
AO-7 18 Apr 17:51:53 17:59:04 32° 264° (W) 18:06:19 29.400 - 29.500 MHz
JAS-2 18 Apr 17:53:05 17:56:44 18° 62° (ENE) 18:00:14 435.800 - 435.900 CW/SSB, 435.910 FM
RS-15 18 Apr 17:57:34 18:07:21 40° 252° (WSW) 18:17:25 29.354 - 29.394 USB, Beacon 29.352 USB
SO-50 18 Apr 18:07:18 18:10:09 16° 323° (NW) 18:13:01 436.795 FM
ISS 18 Apr 18:14:52 18:17:39 23° 346° (NNW) 18:20:26 145.800 FM
STRAND 1 18 Apr 18:36:58 18:40:09 16° 91° (E) 18:43:18 ?
Hamsat 18 Apr 18:42:36 18:46:45 63° 259° (W) 18:50:58 145.90 MHz
UOSAT-12 18 Apr 18:53:21 18:57:52 60° 307° (NW) 19:02:29 437.025 FM, 437.400 FM
Saudisat 1A 18 Apr 19:08:53 19:12:17 21° 41° (NE) 19:15:39 436.775 MHz
SO-67 18 Apr 19:12:59 19:16:22 49° 74° (ENE) 19:19:46 435.3500 MHz FM
JAS-2 18 Apr 19:35:32 19:41:26 67° 258° (WSW) 19:46:48 435.800 - 435.900 CW/SSB, 435.910 FM
HO-68 18 Apr 19:37:48 19:42:48 21° 54° (NE) 19:47:49 435.675 MHz FM
ISS 18 Apr 19:52:42 19:55:13 19° 6° (N) 19:57:45 145.800 FM
STRAND 1 18 Apr 20:14:43 20:19:46 62° 288° (WNW) 20:24:46 ?
UOSAT-12 18 Apr 20:37:01 20:39:01 13° 328° (NNW) 20:41:02 437.025 FM, 437.400 FM
Saudisat 1A 18 Apr 20:47:54 20:52:14 56° 240° (WSW) 20:56:30 436.775 MHz
HO-68 18 Apr 21:22:30 21:29:39 85° 254° (WSW) 21:36:52 435.675 MHz FM
ISS 18 Apr 21:29:21 21:32:35 44° 26° (NNE) 21:35:49 145.800 FM
FUNcube-1 18 Apr 21:40:08 21:42:54 17° 65° (ENE) 21:45:40 145.950 - 145.970 MHz USB
Oscar 11 18 Apr 21:50:50 21:55:07 71° 75° (ENE) 21:59:26 145.825 FM, Beacon 2401.500 USB
MaSat-1 18 Apr 22:10:31 22:13:27 80° 116° (ESE) 22:16:04 437.345 MHz
ISS 18 Apr 23:06:19 23:09:14 27° 223° (SW) 23:12:08 145.800 FM
HO-68 18 Apr 23:14:30 23:18:20 15° 272° (W) 23:22:12 435.675 MHz FM
FUNcube-1 18 Apr 23:15:01 23:19:02 43° 261° (W) 23:23:02 145.950 - 145.970 MHz USB
SO-50 18 Apr 23:15:41 23:18:46 17° 38° (NE) 23:21:52 436.795 FM
Oscar 11 18 Apr 23:30:51 23:31:48 11° 271° (W) 23:32:45 145.825 FM, Beacon 2401.500 USB
PCSat 18 Apr 23:57:29 00:00:59 18° 105° (ESE) 00:04:30 145.825 MHz
Sapphire 19 Apr 00:53:40 00:58:52 50° 114° (ESE) 01:04:06 437.095 MHz 1200 baud AX-25 AFSK
SO-50 19 Apr 00:55:16 00:59:55 84° 237° (WSW) 01:04:38 436.795 FM
Oscar 19 19 Apr 01:18:21 01:20:03 12° 88° (E) 01:21:45 437.125 CW, 437.150 USB
Oscar 16 19 Apr 01:25:27 01:28:23 15° 90° (E) 01:31:18 437.025 USB, Beacon 2401.1428
OPAL 19 Apr 01:38:08 01:41:59 23° 61° (ENE) 01:45:53 ?
PCSat 19 Apr 01:38:26 01:43:49 68° 303° (WNW) 01:49:14 145.825 MHz
UOSAT-12 19 Apr 01:42:29 01:46:20 24° 42° (NE) 01:50:10 437.025 FM, 437.400 FM
Uribyol 2 19 Apr 01:59:15 02:02:24 16° 91° (E) 02:05:33 436.500 FM
KITSAT 1 19 Apr 02:10:11 02:16:33 26° 105° (ESE) 02:22:57 435.175 FM
Oscar 10/S400 19 Apr 02:31:33 02:49:15 27° 131° (SE) 03:37:47 145.825 - 145.975 CW/USB, Beacon 145.810 USB
Sapphire 19 Apr 02:37:55 02:42:32 28° 313° (NW) 02:47:11 437.095 MHz 1200 baud AX-25 AFSK
AO-27 19 Apr 02:37:57 02:42:42 35° 97° (E) 02:47:25 436.795 MHz FM
ITAMSAT 1 19 Apr 02:48:42 02:53:38 44° 99° (E) 02:58:33 435.822 SSB
Oscar 19 19 Apr 02:54:50 03:00:04 87° 285° (WNW) 03:05:16 437.125 CW, 437.150 USB
AO-Echo 19 Apr 03:02:12 03:06:50 46° 99° (E) 03:11:21 ?
Oscar 16 19 Apr 03:03:03 03:08:14 70° 287° (WNW) 03:13:24 437.025 USB, Beacon 2401.1428
OPAL 19 Apr 03:15:41 03:20:32 49° 258° (WSW) 03:25:29 ?
TMSAT-1 19 Apr 03:16:04 03:19:43 19° 91° (E) 03:23:21 436.925 FM
UOSAT-12 19 Apr 03:22:11 03:26:48 53° 241° (WSW) 03:31:21 437.025 FM, 437.400 FM
PCSat 19 Apr 03:25:21 03:28:17 15° 324° (NW) 03:31:14 145.825 MHz
Uribyol 2 19 Apr 03:37:12 03:42:20 65° 288° (WNW) 03:47:27 436.500 FM
AO-7 19 Apr 04:00:13 04:05:01 16° 88° (E) 04:09:48 29.400 - 29.500 MHz
KITSAT 1 19 Apr 04:03:06 04:11:13 73° 304° (NW) 04:19:22 435.175 FM
Gurwin Techsat 1B 19 Apr 04:06:07 04:11:27 74° 103° (ESE) 04:16:45 435.225 FM
AO-27 19 Apr 04:17:38 04:22:06 30° 294° (WNW) 04:26:34 436.795 MHz FM
ITAMSAT 1 19 Apr 04:28:44 04:32:53 25° 296° (WNW) 04:37:02 435.822 SSB
JAS-1B 19 Apr 04:34:00 04:39:24 43° 99° (E) 04:44:56 435.800 - 435.900 CW/SSB
Oscar 19 19 Apr 04:36:25 04:38:37 13° 303° (WNW) 04:40:50 437.125 CW, 437.150 USB
AO-Echo 19 Apr 04:41:47 04:45:17 21° 297° (WNW) 04:48:44 ?
Oscar 16 19 Apr 04:46:24 04:46:38 10° 305° (NW) 04:46:51 437.025 USB, Beacon 2401.1428
